Home > Time Zones > World Clock > Weather > U.S.A. > Nome > Past weeks

Flag for U.S.A. Weather past 2 weeks in Nome, Alaska, U.S.A.

Now
40 °F

Mostly cloudy.


Feels Like: 37 °F
Forecast: 36 / 49 °F
Wind: 5 mph from Northeast

Location: Nome Airport

Current Time: May 25, 2015 at 4:38:33 AM

Latest Report: May 25, 2015 at 3:53 AM


Visibility: 10 mi

Pressure: 29.98 "Hg

Humidity: 93%

Dew point: 38 °F

Location of NomeLocation

Historic Weather in Nome — Graph

°F

Nome temperature yesterday

Maximum temperature yesterday: 47 °F (at 5:53 PM)
Minimum temperature yesterday: 41 °F (at 7:53 AM)
Average temperature yesterday: 44 °F

Past Weeks' High & Low Weather Summary

 TemperatureHumidityPressure
High58 °F (May 22, 6:53 PM)100% (May 11, 2:53 AM)30.14 "Hg (May 11, 2:53 AM)
Low29 °F (May 12, 6:53 AM)60% (May 22, 6:53 PM)29.50 "Hg (May 13, 3:53 PM)
Average41 °F89%29.80 "Hg
* Reported May 10 2:53 AM — May 25 2:53 AM, Nome, Weather by CustomWeather, © 2015

Note: Actual official high and low records may vary slightly from our data, if they occured in-between our weather recording intervals... More about our weather records

Advertising

Nome weather history for previous 24 hours

 ConditionsComfort  
Time TempWeatherWind HumidityBarometerVisibility
2:53 AM
Mon, May 25
40 °FPartly cloudy.6 mph93%29.98 "Hg10 mi
1:53 AM40 °FBroken clouds.3 mph89%29.96 "Hg10 mi
12:53 AM41 °FBroken clouds.7 mph89%29.96 "Hg10 mi
11:53 PM
Sun, May 24
42 °FMostly cloudy.9 mph85%29.96 "Hg10 mi
10:53 PM44 °FLight rain. Broken clouds.7 mph82%29.95 "Hg10 mi
9:53 PM43 °FOvercast.12 mph86%29.94 "Hg10 mi
8:53 PM46 °FMore clouds than sun.12 mph79%29.93 "Hg10 mi
7:53 PM45 °FMostly cloudy.13 mph80%29.93 "Hg10 mi
6:53 PM44 °FBroken clouds.14 mph82%29.93 "Hg10 mi
5:53 PM47 °FMostly cloudy.14 mph71%29.93 "Hg10 mi
4:53 PM46 °FMore clouds than sun.14 mph79%29.93 "Hg10 mi
3:53 PM46 °FMore clouds than sun.14 mph77%29.92 "Hg10 mi
2:53 PM45 °FMore clouds than sun.15 mph80%29.91 "Hg10 mi
1:53 PM43 °FMostly cloudy.15 mph86%29.90 "Hg10 mi
12:53 PM43 °FCloudy.17 mph86%29.87 "Hg10 mi
11:53 AM43 °FCloudy.18 mph86%29.86 "Hg10 mi
10:53 AM42 °FLow clouds.15 mph89%29.85 "Hg10 mi
9:53 AM41 °FLight rain. Overcast.13 mph93%29.84 "Hg10 mi
8:53 AM41 °FLight rain. Mostly cloudy.10 mph93%29.82 "Hg10 mi
7:53 AM41 °FLight rain. Overcast.12 mph89%29.82 "Hg10 mi
6:53 AM42 °FMore clouds than sun.12 mph82%29.80 "Hg10 mi
5:53 AM43 °FOvercast.15 mph76%29.79 "Hg10 mi
4:53 AM43 °FOvercast.15 mph76%29.78 "Hg10 mi
Weather by CustomWeather, © 2015

See weather overviewHow to use our weather pages